DTUSAT 1 27842U 03031C 08286.53044616 -.00000564 00000-0 -24006-3 0 3955 2 27842 098.7112 294.1787 0010032 115.3528 244.8681 14.20947427274176 CUTE-1 1 27844U 03031E 08286.07362363 .00000448 00000-0 22823-3 0 4155 2 27844 098.7184 292.7324 0010571 135.6393 224.5656 14.20601388274036 QUAKESAT 1 27845U 03031F 08286.59225698 -.00000205 00000-0 -75418-4 0 3962 2 27845 098.7222 292.6237 0009535 150.8900 209.2807 14.20221133274026 AAU CUBESAT 1 27846U 03031G 08286.53013290 -.00000058 00000-0 -66530-5 0 3355 2 27846 098.7104 294.1725 0010282 117.2192 243.0055 14.20949359274170 CANX-1 1 27847U 03031H 08286.04293946 -.00000475 00000-0 -19899-3 0 3492 2 27847 098.7113 293.6873 0010149 116.7304 243.4902 14.20934215274057 CUBESAT XI-IV 1 27848U 03031J 08286.58056570 .00000193 00000-0 11037-3 0 3673 2 27848 098.7178 292.3095 0010149 137.6334 222.5637 14.20407771274073 UWE-1 1 28892U 05043C 08285.68797658 +.00000161 +00000-0 +43381-4 0 01656 2 28892 098.0791 176.4420 0018268 047.6785 312.5964 14.59667135157595 CUBESAT XI-V 1 28895U 05043F 08285.72145250 .00000133 00000-0 37356-4 0 1417 2 28895 098.0827 176.8859 0018750 047.7693 312.5118 14.59703074157485 SSETI-EXPRESS DEB 1 28897U 05043H 08286.63181732 .00000114 00000-0 33305-4 0 6712 2 28897 098.0791 177.6943 0018270 045.3302 314.9378 14.59876571149903 CUTE 1.7 1 28941U 06005C 08286.80520930 .00039558 29847-5 25810-3 0 4557 2 28941 098.1173 054.1711 0147177 332.2532 027.1191 15.62596897148373 GENESAT 1 29655U 06058C 08285.44862980 .00007099 00000-0 87499-4 0 5329 2 29655 040.0292 295.6675 0005030 259.0679 100.9569 15.60319503103548 MAST 1 31126U 07012K 08286.20560358 -.00000026 00000-0 49611-5 0 4367 2 31126 098.0248 345.8841 0094512 329.8797 029.6978 14.53449200 79015 LIBERTAD 1 1 31128U 07012M 08286.21121621 -.00000048 00000-0 00000+0 0 4543 2 31128 098.0270 344.6249 0102286 333.6552 025.9462 14.51980276 78917 CP3 1 31129U 07012N 08286.59174764 -.00000046 00000-0 44458-6 0 3719 2 31129 098.0279 345.0522 0101731 332.2272 027.3490 14.52069862 78955 CAPE 1 1 31130U 07012P 08285.92905873 +.00000020 +00000-0 +15650-4 0 04329 2 31130 098.0281 344.3636 0102462 334.5574 025.0590 14.51996314078664 CP4 1 31132U 07012Q 08286.88250179 -.00000171 00000-0 -27076-4 0 4345 2 31132 098.0304 348.0060 0084925 323.6592 035.8869 14.55146331 79069 AEROCUBE 2 1 31133U 07012R 08285.64626135 .00000054 00000-0 22553-4 0 4183 2 31133 098.0261 346.8144 0085330 327.5890 032.0059 14.55143152 78883